Location: Arbon
(43.0005°N, 0.7472°E)
Time: 19:23:29
(UTC+00:00)

Cosmos 2344 - Pass Details

Date: 07 August 2020
Orbit: 1247 x 2995 km, 63.3° (Epoch: 24 September)

Event Time Altitude Azimuth Distance (km) Brightness Sun altitude
Rises 01:43:45 0° 322° (NW) 4,680 6.9 -26.3°
Reaches altitude 10° 01:46:24 10° 322° (NW) 3,846 6.4 -26.1°
Maximum altitude 01:56:15 84° 237° (WSW) 2,025 4.4 -25.2°
Drops below altitude 10° 02:10:07 10° 151° (SSE) 5,250 6.5 -23.9°
Sets 02:14:23 0° 151° (SSE) 6,456 7.0 -23.4°
